FW9002 Weather Reports


time (UTC)temp
F
wind
direction
speed
knots
gust
knots
rain 1hr
in
rain 24hr
in
rain mn
in
humidity
%
barometer
mb
20260509021832 87 331 0.9 0.9 0.00 0.00 0.00 14 1009.2
20260509021329 88 303 1.7 2.6 0.00 0.00 0.00 13 1009.2
20260509020827 88 306 0.9 0.9 0.00 0.00 0.00 13 1009.1
20260509020325 88 312 2.6 2.6 0.00 0.00 0.00 13 1009.0
20260509015822 89 320 2.6 2.6 0.00 0.00 0.00 13 1009.0
20260509015320 89 105 1.7 1.7 0.00 0.00 0.00 12 1008.9
20260509014817 90 311 4.3 6.1 0.00 0.00 0.00 12 1008.8
20260509014314 91 339 0.9 0.9 0.00 0.00 0.00 12 1008.8
20260509013811 91 312 0.9 1.7 0.00 0.00 0.00 12 1008.6
20260509013307 91 296 3.5 5.2 0.00 0.00 0.00 11 1008.8
20260509012803 91 3 1.7 1.7 0.00 0.00 0.00 12 1008.9
20260509012300 92 314 2.6 5.2 0.00 0.00 0.00 11 1008.6
20260509011757 92 311 1.7 2.6 0.00 0.00 0.00 11 1008.8
20260509011254 92 301 2.6 2.6 0.00 0.00 0.00 11 1008.6
20260509010752 93 311 2.6 2.6 0.00 0.00 0.00 11 1008.8
20260509010248 93 287 4.3 7.0 0.00 0.00 0.00 11 1008.8
20260509005746 93 343 0.9 0.9 0.00 0.00 0.00 12 1008.8
20260509005244 93 311 2.6 2.6 0.00 0.00 0.00 11 1009.0
20260509004743 93 29 0.9 1.7 0.00 0.00 0.00 11 1008.8
20260509004241 93 264 3.5 4.3 0.00 0.00 0.00 10 1009.0
20260509003739 93 295 4.3 5.2 0.00 0.00 0.00 10 1008.8
20260509003236 94 299 4.3 7.0 0.00 0.00 0.00 11 1008.8
20260509002733 94 272 3.5 5.2 0.00 0.00 0.00 11 1008.9
20260509002231 94 307 0.9 0.9 0.00 0.00 0.00 11 1008.8
20260509001729 94 0 0.9 0.9 0.00 0.00 0.00 11 1008.9
20260509001224 95 277 5.2 6.1 0.00 0.00 0.00 10 1008.8
20260509000722 95 322 2.6 2.6 0.00 0.00 0.00 10 1008.9
20260509000219 95 295 4.3 7.0 0.00 0.00 0.00 10 1008.9
20260508235716 95 277 4.3 7.0 0.00 0.00 0.00 10 1008.9
20260508235212 94 303 4.3 6.1 0.00 0.00 0.00 11 1008.8
20260508234710 95 307 4.3 5.2 0.00 0.00 0.00 10 1008.9
20260508234206 95 329 1.7 1.7 0.00 0.00 0.00 11 1009.0
20260508233706 95 336 0.9 1.7 0.00 0.00 0.00 11 1009.1
20260508233203 94 357 1.7 1.7 0.00 0.00 0.00 11 1008.9
20260508232700 94 292 3.5 4.3 0.00 0.00 0.00 11 1009.0
20260508232156 94 342 2.6 2.6 0.00 0.00 0.00 11 1009.1
20260508231655 95 353 5.2 8.7 0.00 0.00 0.00 11 1009.0
20260508231151 95 356 0.9 0.9 0.00 0.00 0.00 11 1009.1
20260508230648 94 298 3.5 5.2 0.00 0.00 0.00 11 1009.1
20260508230144 95 308 5.2 6.1 0.00 0.00 0.00 11 1009.5
20260508225643 95 317 1.7 1.7 0.00 0.00 0.00 11 1009.2
20260508225138 94 319 0.9 1.7 0.00 0.00 0.00 11 1009.5
20260508224636 95 302 5.2 7.0 0.00 0.00 0.00 11 1009.6
20260508224134 95 320 3.5 4.3 0.00 0.00 0.00 11 1009.5
20260508223631 94 328 2.6 4.3 0.00 0.00 0.00 12 1009.7
20260508223128 95 264 4.3 5.2 0.00 0.00 0.00 11 1009.5
20260508222626 95 237 4.3 7.8 0.00 0.00 0.00 12 1009.3
20260508222123 95 34 0.9 0.9 0.00 0.00 0.00 12 1009.7
20260508221619 95 352 7.0 9.6 0.00 0.00 0.00 12 1009.9
20260508221115 94 294 1.7 1.7 0.00 0.00 0.00 12 1009.7
20260508220611 95 303 4.3 6.1 0.00 0.00 0.00 12 1009.7
20260508220108 94 318 4.3 7.0 0.00 0.00 0.00 12 1009.9
20260508215605 94 348 2.6 4.3 0.00 0.00 0.00 12 1010.1
20260508215101 94 308 2.6 4.3 0.00 0.00 0.00 13 1010.0
20260508214559 95 322 3.5 8.7 0.00 0.00 0.00 12 1010.2
20260508214055 94 4 1.7 1.7 0.00 0.00 0.00 13 1010.2
20260508213552 95 297 4.3 5.2 0.00 0.00 0.00 12 1010.3
20260508213048 94 280 4.3 6.1 0.00 0.00 0.00 13 1010.5
20260508212545 93 57 2.6 2.6 0.00 0.00 0.00 12 1010.4
20260508212041 94 304 6.1 7.8 0.00 0.00 0.00 12 1010.4
20260508211537 93 207 3.5 4.3 0.00 0.00 0.00 12 1010.5
20260508211033 93 298 3.5 6.1 0.00 0.00 0.00 13 1010.6
20260508210530 93 295 3.5 5.2 0.00 0.00 0.00 13 1011.0
20260508210028 93 282 3.5 7.8 0.00 0.00 0.00 13 1010.6
20260508205524 93 321 5.2 6.1 0.00 0.00 0.00 13 1010.9
20260508205020 93 292 3.5 5.2 0.00 0.00 0.00 13 1010.9
20260508204518 93 295 5.2 8.7 0.00 0.00 0.00 13 1010.9
20260508204014 93 306 5.2 7.0 0.00 0.00 0.00 13 1011.0
20260508203510 92 314 2.6 2.6 0.00 0.00 0.00 14 1011.2
20260508203006 92 274 5.2 7.8 0.00 0.00 0.00 13 1011.3
20260508202503 92 303 4.3 7.8 0.00 0.00 0.00 13 1011.1
20260508202000 92 302 4.3 7.8 0.00 0.00 0.00 13 1011.3
20260508201456 92 283 1.7 1.7 0.00 0.00 0.00 14 1011.4
20260508200953 91 275 4.3 6.1 0.00 0.00 0.00 14 1011.5
20260508200450 91 281 3.5 4.3 0.00 0.00 0.00 13 1011.6
20260508195944 92 318 5.2 7.0 0.00 0.00 0.00 14 1011.5
20260508195442 91 255 2.6 2.6 0.00 0.00 0.00 14 1011.8
20260508194938 91 288 5.2 6.1 0.00 0.00 0.00 15 1011.7
20260508194436 92 251 6.1 7.8 0.00 0.00 0.00 14 1011.7
20260508193932 91 282 2.6 2.6 0.00 0.00 0.00 15 1011.7
20260508193430 91 279 4.3 7.0 0.00 0.00 0.00 15 1012.0
20260508192926 90 286 4.3 5.2 0.00 0.00 0.00 15 1012.0
20260508192423 91 319 6.1 7.0 0.00 0.00 0.00 15 1011.9
20260508191920 90 284 0.9 1.7 0.00 0.00 0.00 16 1011.9
20260508191417 90 319 4.3 5.2 0.00 0.00 0.00 15 1012.1
20260508190914 90 292 2.6 4.3 0.00 0.00 0.00 15 1012.1
20260508190411 91 314 6.1 7.0 0.00 0.00 0.00 15 1012.4
20260508185907 90 266 3.5 5.2 0.00 0.00 0.00 16 1012.4
20260508185405 89 289 2.6 2.6 0.00 0.00 0.00 16 1012.4
20260508184902 89 244 2.6 4.3 0.00 0.00 0.00 16 1012.4
20260508184359 89 270 2.6 2.6 0.00 0.00 0.00 17 1012.5
20260508183855 89 15 1.7 1.7 0.00 0.00 0.00 17 1012.8
20260508183352 87 46 0.9 0.9 0.00 0.00 0.00 17 1012.6
20260508182848 87 289 2.6 2.6 0.00 0.00 0.00 17 1012.8
20260508182345 87 226 2.6 1.7 0.00 0.00 0.00 17 1012.7
20260508181840 87 12 1.7 2.6 0.00 0.00 0.00 18 1013.0
20260508181337 88 256 3.5 4.3 0.00 0.00 0.00 17 1013.0
20260508180834 88 230 1.7 1.7 0.00 0.00 0.00 17 1013.1
20260508180331 87 37 0.9 1.7 0.00 0.00 0.00 18 1013.2
20260508175827 86 47 1.7 1.7 0.00 0.00 0.00 19 1013.4
20260508175324 86 266 0.9 0.9 0.00 0.00 0.00 19 1013.5
20260508174822 84 111 0.9 0.9 0.00 0.00 0.00 18 1013.4
20260508174319 84 108 0.9 0.9 0.00 0.00 0.00 19 1013.8
20260508173815 83 256 2.6 2.6 0.00 0.00 0.00 20 1013.6
20260508173313 83 161 2.6 2.6 0.00 0.00 0.00 19 1013.9
20260508172808 84 276 1.7 1.7 0.00 0.00 0.00 20 1013.9
20260508172307 83 307 1.7 1.7 0.00 0.00 0.00 20 1013.8
20260508171802 83 253 0.9 0.9 0.00 0.00 0.00 20 1014.0
20260508171258 83 306 1.7 1.7 0.00 0.00 0.00 20 1013.9
20260508170755 82 300 2.6 2.6 0.00 0.00 0.00 21 1013.8
20260508170253 82 241 0.0 0.9 0.00 0.00 0.00 20 1014.0
20260508165750 82 246 2.6 2.6 0.00 0.00 0.00 20 1014.0
20260508165247 83 51 1.7 1.7 0.00 0.00 0.00 20 1014.0
20260508164743 83 265 0.0 0.0 0.00 0.00 0.00 20 1013.9
20260508164240 84 173 0.9 0.9 0.00 0.00 0.00 20 1014.1
20260508163738 83 73 0.9 0.9 0.00 0.00 0.00 20 1014.2
20260508163236 82 11 0.0 0.0 0.00 0.00 0.00 22 1014.2
20260508162731 82 93 0.0 0.0 0.00 0.00 0.00 21 1014.2
20260508162228 80 137 1.7 1.7 0.00 0.00 0.00 22 1014.5
20260508161725 81 229 0.9 1.7 0.00 0.00 0.00 22 1014.2
20260508161222 80 73 0.9 0.9 0.00 0.00 0.00 23 1014.2
20260508160720 79 108 0.9 0.9 0.00 0.00 0.00 23 1014.3
20260508160218 79 130 0.9 0.9 0.00 0.00 0.00 22 1014.3
20260508155714 79 93 0.9 0.9 0.00 0.00 0.00 24 1014.2
20260508155212 78 117 0.0 0.0 0.00 0.00 0.00 23 1014.4
20260508154708 78 130 0.9 1.7 0.00 0.00 0.00 23 1014.3
20260508154206 77 95 0.9 0.9 0.00 0.00 0.00 24 1014.4
20260508153702 77 80 0.0 0.0 0.00 0.00 0.00 25 1014.3
20260508153159 77 76 0.9 0.9 0.00 0.00 0.00 25 1014.3
20260508152656 77 90 0.9 1.7 0.00 0.00 0.00 24 1014.2
20260508152152 77 93 1.7 1.7 0.00 0.00 0.00 25 1014.2
20260508151648 75 106 0.0 0.0 0.00 0.00 0.00 26 1014.3
20260508151145 74 73 0.0 0.0 0.00 0.00 0.00 29 1014.5
20260508150642 74 55 0.9 0.9 0.00 0.00 0.00 29 1014.4
20260508150138 74 118 1.7 1.7 0.00 0.00 0.00 29 1014.4
20260508145634 73 113 0.9 0.9 0.00 0.00 0.00 29 1014.5
20260508145131 72 63 0.0 0.0 0.00 0.00 0.00 32 1014.3
20260508144629 72 94 0.0 0.9 0.00 0.00 0.00 30 1014.5
20260508144126 71 111 0.9 0.9 0.00 0.00 0.00 31 1014.4
20260508143623 70 86 0.0 0.0 0.00 0.00 0.00 33 1014.2
20260508143120 70 93 0.9 0.9 0.00 0.00 0.00 33 1014.4
20260508142617 70 81 0.9 0.9 0.00 0.00 0.00 34 1014.2
20260508142113 69 98 0.0 0.0 0.00 0.00 0.00 34 1014.5
20260508141610 68 104 0.9 0.9 0.00 0.00 0.00 36 1014.2
20260508141108 67 107 0.9 0.9 0.00 0.00 0.00 36 1014.2
20260508140605 67 102 0.9 0.9 0.00 0.00 0.00 37 1014.1
20260508135556 66 94 0.0 0.0 0.00 0.00 0.00 38 1014.2
20260508135053 65 86 0.9 0.9 0.00 0.00 0.00 39 1014.2
20260508134550 64 81 0.9 0.9 0.00 0.00 0.00 40 1014.3
20260508134047 64 105 0.9 0.9 0.00 0.00 0.00 41 1014.3
20260508133543 63 98 0.9 0.9 0.00 0.00 0.00 41 1014.1
20260508133041 62 95 0.9 0.9 0.00 0.00 0.00 44 1014.0
20260508132539 61 84 0.9 0.9 0.00 0.00 0.00 45 1014.1
20260508132035 60 83 0.9 0.9 0.00 0.00 0.00 45 1014.0
20260508131530 60 94 0.9 0.9 0.00 0.00 0.00 46 1013.8
20260508131027 59 81 0.9 0.9 0.00 0.00 0.00 47 1013.9
20260508130525 57 79 0.0 0.0 0.00 0.00 0.00 50 1013.6
20260508130021 56 77 0.0 0.9 0.00 0.00 0.00 52 1013.6
20260508125517 56 77 0.0 0.0 0.00 0.00 0.00 53 1013.6
20260508125015 56 77 0.0 0.0 0.00 0.00 0.00 56 1013.8
20260508124512 56 77 0.0 0.0 0.00 0.00 0.00 57 1013.4
20260508124009 56 77 0.0 0.0 0.00 0.00 0.00 57 1013.4
20260508123508 56 77 0.0 0.0 0.00 0.00 0.00 57 1013.2
20260508123004 56 77 0.0 0.0 0.00 0.00 0.00 57 1013.1
20260508122501 56 77 0.9 0.9 0.00 0.00 0.00 58 1013.3
20260508121958 56 77 0.0 0.0 0.00 0.00 0.00 57 1013.1
20260508121456 56 77 0.0 0.0 0.00 0.00 0.00 56 1013.2
20260508120954 56 77 0.0 0.0 0.00 0.00 0.00 57 1013.0
20260508120451 57 77 0.0 0.0 0.00 0.00 0.00 55 1013.1
20260508115949 57 77 0.0 0.0 0.00 0.00 0.00 54 1013.0
20260508115447 57 77 0.0 0.0 0.00 0.00 0.00 53 1012.9
20260508114943 58 77 0.0 0.0 0.00 0.00 0.00 52 1012.9
20260508114440 58 77 0.0 0.0 0.00 0.00 0.00 51 1013.0
20260508113936 58 76 0.0 0.0 0.00 0.00 0.00 51 1012.9
20260508113434 58 75 0.0 0.0 0.00 0.00 0.00 51 1012.9
20260508112931 58 75 0.0 0.0 0.00 0.00 0.00 51 1012.8
20260508112428 59 75 0.0 0.0 0.00 0.00 0.00 50 1013.0
20260508111925 59 76 0.0 0.0 0.00 0.00 0.00 48 1012.7
20260508111422 59 76 0.0 0.0 0.00 0.00 0.00 48 1012.7
20260508110919 60 75 0.0 0.0 0.00 0.00 0.00 48 1012.6
20260508110417 59 76 0.0 0.0 0.00 0.00 0.00 48 1012.6
20260508105916 59 75 0.0 0.0 0.00 0.00 0.00 48 1012.8
20260508105413 59 75 0.0 0.0 0.00 0.00 0.00 49 1012.8
20260508104910 59 74 0.0 0.0 0.00 0.00 0.00 50 1012.8
20260508104407 59 74 0.0 0.0 0.00 0.00 0.00 50 1012.6
20260508103904 59 74 0.0 0.0 0.00 0.00 0.00 49 1012.6
20260508103401 60 74 0.0 0.0 0.00 0.00 0.00 47 1012.4
20260508102858 60 74 0.0 0.0 0.00 0.00 0.00 46 1012.8
20260508102356 60 74 0.0 0.0 0.00 0.00 0.00 45 1012.6
20260508101853 61 74 0.0 0.0 0.00 0.00 0.00 44 1012.7
20260508101350 61 73 0.9 0.9 0.00 0.00 0.00 44 1012.6
20260508100848 61 73 0.0 0.0 0.00 0.00 0.00 44 1012.8
20260508100347 61 73 0.0 0.0 0.00 0.00 0.00 43 1012.4
20260508095842 61 73 0.0 0.0 0.00 0.00 0.00 43 1012.6
20260508095340 62 72 0.0 0.0 0.00 0.00 0.00 42 1012.5
20260508094836 61 72 0.0 0.0 0.00 0.00 0.00 43 1012.2
20260508094333 61 72 0.0 0.0 0.00 0.00 0.00 43 1012.6
20260508093831 61 72 0.0 0.0 0.00 0.00 0.00 44 1012.5
20260508093328 61 72 0.0 0.0 0.00 0.00 0.00 44 1012.6
20260508092825 61 72 0.0 0.0 0.00 0.00 0.00 43 1012.5
20260508092323 62 72 0.0 0.0 0.00 0.00 0.00 43 1012.6
20260508091821 62 72 0.0 0.0 0.00 0.00 0.00 42 1012.7
20260508091317 63 72 0.0 0.0 0.00 0.00 0.00 41 1012.6
20260508090815 63 71 0.0 0.0 0.00 0.00 0.00 40 1012.4
20260508090314 63 71 0.0 0.0 0.00 0.00 0.00 38 1012.7
20260508085809 63 75 0.0 0.0 0.00 0.00 0.00 38 1012.6
20260508085307 64 75 0.0 0.0 0.00 0.00 0.00 38 1012.8
20260508084802 63 81 0.9 0.9 0.00 0.00 0.00 38 1012.7
20260508084259 64 87 0.0 0.0 0.00 0.00 0.00 38 1012.7
20260508083757 64 91 0.0 0.0 0.00 0.00 0.00 37 1012.6
20260508083254 64 97 0.9 0.9 0.00 0.00 0.00 38 1012.9
20260508082754 64 83 0.9 0.9 0.00 0.00 0.00 38 1012.8
20260508082252 64 83 0.9 0.9 0.00 0.00 0.00 37 1012.9
20260508081749 65 83 0.0 0.0 0.00 0.00 0.00 36 1012.8
20260508081245 65 77 0.9 0.9 0.00 0.00 0.00 35 1012.8
20260508080742 65 82 0.9 0.9 0.00 0.00 0.00 35 1013.0
20260508080241 65 86 0.0 0.0 0.00 0.00 0.00 35 1013.0
20260508075737 65 81 0.9 0.9 0.00 0.00 0.00 35 1013.1
20260508075234 65 108 0.9 1.7 0.00 0.00 0.00 35 1012.7
20260508074731 65 89 0.9 0.9 0.00 0.00 0.00 35 1013.0
20260508074229 66 85 0.0 0.0 0.00 0.00 0.00 35 1013.2
20260508073725 66 85 0.0 0.0 0.00 0.00 0.00 34 1013.4
20260508073224 66 85 0.0 0.9 0.00 0.00 0.00 34 1013.2
20260508072719 66 99 0.0 0.0 0.00 0.00 0.00 34 1012.9
20260508072216 66 99 0.0 0.0 0.00 0.00 0.00 35 1013.3
20260508071714 67 99 0.0 0.0 0.00 0.00 0.00 34 1013.3
20260508071212 67 99 0.0 0.0 0.00 0.00 0.00 34 1013.0
20260508070709 67 99 0.9 0.9 0.00 0.00 0.00 34 1013.3
20260508070208 67 108 0.0 0.0 0.00 0.00 0.00 33 1013.2
20260508065704 66 109 0.9 0.9 0.00 0.00 0.00 34 1013.3
20260508065202 66 90 0.0 0.0 0.00 0.00 0.00 36 1013.2
20260508064700 68 90 0.0 0.0 0.00 0.00 0.00 34 1013.1
20260508064158 68 90 0.0 0.0 0.00 0.00 0.00 33 1013.1
20260508063655 68 93 0.0 0.9 0.00 0.00 0.00 33 1013.3
20260508063153 68 103 0.9 0.9 0.00 0.00 0.00 34 1013.2
20260508062650 67 140 0.9 0.9 0.00 0.00 0.00 34 1013.4
20260508062147 66 187 0.0 0.0 0.00 0.00 0.00 35 1013.5
20260508061644 66 194 2.6 1.7 0.00 0.00 0.00 37 1013.4
20260508061141 66 93 0.0 0.0 0.00 0.00 0.00 36 1013.2
20260508060638 66 92 0.0 0.0 0.00 0.00 0.00 36 1013.4
20260508060135 67 93 0.0 0.0 0.00 0.00 0.00 35 1013.2
20260508055631 67 93 0.0 0.0 0.00 0.00 0.00 33 1013.2
20260508055128 68 93 0.0 0.0 0.00 0.00 0.00 33 1013.3
20260508054624 68 92 0.0 0.0 0.00 0.00 0.00 33 1013.4
20260508054122 68 93 0.0 0.0 0.00 0.00 0.00 32 1013.4
20260508053618 69 93 0.0 0.0 0.00 0.00 0.00 31 1013.2
20260508053116 69 94 0.0 0.0 0.00 0.00 0.00 30 1013.0
20260508052614 69 94 0.0 0.0 0.00 0.00 0.00 30 1013.3
20260508052110 69 94 0.0 0.0 0.00 0.00 0.00 31 1013.5
20260508051606 70 94 0.0 0.0 0.00 0.00 0.00 30 1013.2
20260508051102 71 94 0.0 0.0 0.00 0.00 0.00 30 1013.1
20260508050558 72 95 0.0 0.0 0.00 0.00 0.00 29 1013.2
20260508050056 72 126 0.0 0.0 0.00 0.00 0.00 25 1013.1
20260508045552 73 120 0.0 0.0 0.00 0.00 0.00 25 1013.2
20260508045050 73 118 0.0 0.0 0.00 0.00 0.00 25 1013.2
20260508044547 73 129 0.0 0.0 0.00 0.00 0.00 25 1013.0
20260508044043 73 91 0.9 0.9 0.00 0.00 0.00 26 1012.9
20260508043539 73 103 0.0 0.0 0.00 0.00 0.00 26 1013.1
20260508043037 73 103 0.9 0.9 0.00 0.00 0.00 25 1012.8
20260508042533 73 122 0.0 0.9 0.00 0.00 0.00 26 1012.7
20260508042031 73 95 0.0 0.0 0.00 0.00 0.00 27 1012.6
20260508041527 73 95 0.0 0.0 0.00 0.00 0.00 26 1012.4
20260508041024 74 97 0.9 0.9 0.00 0.00 0.00 26 1012.5
20260508040521 74 105 0.0 0.0 0.00 0.00 0.00 25 1012.5
20260508040018 74 105 0.0 0.0 0.00 0.00 0.00 25 1012.6
20260508035515 74 105 0.0 0.0 0.00 0.00 0.00 25 1012.4
20260508035012 74 105 0.9 0.9 0.00 0.00 0.00 25 1012.1
20260508034509 75 101 1.7 1.7 0.00 0.00 0.00 24 1012.0
20260508034006 75 54 0.0 0.0 0.00 0.00 0.00 23 1011.8
20260508033504 76 45 0.0 0.0 0.00 0.00 0.00 23 1011.8
20260508033001 77 45 0.0 0.0 0.00 0.00 0.00 22 1011.8
20260508032458 77 25 0.9 0.9 0.00 0.00 0.00 21 1011.6
20260508031955 77 294 0.9 0.9 0.00 0.00 0.00 21 1011.5
20260508031453 78 283 0.0 0.0 0.00 0.00 0.00 20 1011.3
20260508030948 78 278 0.0 0.0 0.00 0.00 0.00 20 1011.3
20260508030445 79 301 0.9 0.9 0.00 0.00 0.00 20 1011.2
20260508025943 79 258 1.7 2.6 0.00 0.00 0.00 19 1011.0
20260508025439 79 237 2.6 4.3 0.00 0.00 0.00 19 1010.9
20260508024936 79 264 4.3 5.2 0.00 0.00 0.00 19 1010.7
20260508024432 80 215 7.0 7.8 0.00 0.00 0.00 19 1010.6
20260508023929 80 258 9.6 11.3 0.00 0.00 0.00 19 1010.7
20260508023426 80 241 3.5 4.3 0.00 0.00 0.00 19 1010.3
20260508022923 81 258 6.1 9.6 0.00 0.00 0.00 18 1010.5
20260508022419 81 225 5.2 7.0 0.00 0.00 0.00 18 1010.3